User: anonymous
Location: Stamford Observatory
(41.1241°N, 73.5498°W)
Time: 17:23:40
(UTC-04:00)
Language:

IRS-P3 - Orbit

View from above orbital plane
View from above orbital plane
View from above satellite
View from above satellite

Ground track
Ground track

The orbit data is extracted from the following two-line orbital elements,

1 23827U 96017A   14202.42002442  .00000001  00000-0  19739-4 0   548
2 23827 098.6236 140.8322 0002735 211.1988 293.5528 14.22208859951476
Epoch (UTC): 21 July 2014 10:04:50
Eccentricity: 0.0002735
inclination: 98.6236°
perigee height: 816 km
apogee height: 820 km
right ascension of ascending node: 140.8322°
argument of perigee: 211.1988°
revolutions per day: 14.22208859
mean anomaly at epoch: 293.5528°
orbit number at epoch: 95147

The dashed part of the orbit path shows where the satellite is in the earth's shadow,  

DLR